Location: Mississauga
(43.5802°N, 79.6166°W)
Time: 08:31:26
(UTC-04:00)

Cosmos 1437 Rocket - Visible Passes

Search period start: 02 July 2015 00:00
Search period end: 12 July 2015 00:00
Orbit: 523 x 559 km, 81.2° (Epoch: 01 July)

Date Brightness Start Highest point End Pass type
(mag) Time Alt. Az. Time Alt. Az. Time Alt. Az.
02 Jul 2.8 01:06:27 10° N 01:10:17 74° NE 01:10:17 74° NE visible
03 Jul 2.8 00:59:18 10° N 01:03:06 76° NE 01:03:06 76° NE visible
04 Jul 2.8 00:52:08 10° N 00:55:57 78° NNE 00:55:57 78° NNE visible
05 Jul 2.7 00:44:59 10° N 00:48:48 80° NNE 00:48:48 80° NNE visible
06 Jul 2.7 00:37:49 10° N 00:41:40 82° N 00:41:40 82° N visible
07 Jul 2.7 00:30:40 10° N 00:34:32 84° NNW 00:34:32 84° NNW visible
08 Jul 2.7 00:23:31 10° N 00:27:25 84° WNW 00:27:25 84° WNW visible
09 Jul 2.6 00:16:21 10° NNW 00:20:19 82° W 00:20:19 82° W visible
10 Jul 2.6 00:09:11 10° NNW 00:13:09 79° W 00:13:14 79° WSW visible
11 Jul 2.6 00:02:02 10° NNW 00:05:59 76° W 00:06:09 74° SW visible
